SCP
0 -0 -0 -0 -0 -0 -0 -0 0 -0 -0 -0 0 0 0 -0 0 0 0 0 0 0 0 0 0 -0 0 0 -0 -0 0 0
0 -0 -0 -0 -0 -0 -0 -0 -0 -0 -0 -0 0 0 0 0 0 0 0 0 0 0 0 0 0 0 0 0 0 0 -0 0
-0 -0 0 0 0 -0 -0 -0 -0 -0 -0 0 0 0 0 0 0 0 0 0 0 0 0 0 0 0 0 0 0 0 -0 0
-0 0 0 0 0 0 0 0 0 -0 0 0 0 0 0 0 0 0 0 0 0 0 0 0 0 0 0 0 0 0 -0 0
-0 0 0 0 0 -0 0 0 0 0 0 0 0 0 0 0 0 0 0 0 0 0 0 0 -0 0 0 0 0 0 -0 -0
-0 -0 0 -0 0 -0 -0 0 0 0 0 0 0 0 0 0 0 0 0 0 0 0 0 0 0 0 0 0 0 0 0 0
-0 -0 -0 -0 -0 -0 -0 -0 0 0 0 0 0 0 0 0 0 0 0 0 0 0 0 0 0 0 0 0 0 0 0 -0
-0 -0 -0 -0 -0 -0 -0 -0 0 0 0 0 0 0 0 0 0 0 0 0 0 0 0 0 0 0 0 0 0 0 0 0
0 0 -0 -0 -0 -0 -0 -0 -0 -0 0 0 0 0 0 0 0 0 0 0 0 1 0 0 0 0 0 0 0 0 0 0
0 -0 -0 -0 -0 -0 -0 -0 -0 0 0 0 0 0 0 0 0 0 0 1 0 0 0 0 0 0 0 0 0 0 0 0
0 -0 -0 -0 -0 -0 -0 -0 0 0 0 0 0 0 0 0 0 0 0 0 0 1 1 0 0 0 0 0 0 0 0 0
0 -0 -0 -0 -0 -0 -0 -0 0 0 0 1 1 1 0 0 0 0 0 0 1 1 1 1 0 0 1 0 0 0 0 0
0 0 -0 -0 -0 -0 -0 0 1 0 0 0 1 1 1 1 1 1 1 0 0 0 0 1 1 1 1 1 0 0 0 0
0 0 -0 0 0 0 -0 0 1 1 1 2 1 1 1 1 1 2 1 1 0 0 0 1 1 0 0 0 0 0 0 0
0 0 0 0 0 1 1 -0 1 2 3 2 3 3 2 2 2 1 1 1 0 1 1 1 1 0 0 0 0 0 0 0
0 0 -0 0 0 0 2 3 2 4 7 5 3 2 5 3 2 1 1 1 1 1 1 0 0 0 0 0 0 0 0 0
1 2 2 1 0 0 1 6 8 7 7 6 3 5 2 2 1 1 0 1 1 -0 1 0 0 0 -0 0 0 0 0 0
1 1 1 1 2 1 3 8 12 12 9 7 4 2 1 1 0 0 0 0 0 0 0 0 0 0 0 0 0 0 0 0
1 1 1 1 1 2 6 7 4 2 1 0 0 0 0 0 0 0 0 0 0 0 0 0 0 0 0 0 0 0 0 0
0 -0 -0 -0 0 1 1 1 0 0 0 0 0 0 0 0 0 0 1 0 0 0 0 0 -0 0 0 0 0 0 0 0
Wind_Speed_500mb
50 49 52 44 35 31 26 18 15 19 14 11 7 13 11 15 18 11 5 2 4 7 12 6 8 12 14 11 18 11 14 10
52 49 51 47 44 40 38 25 19 35 23 15 9 10 8 5 6 7 6 8 5 2 5 11 11 8 6 10 9 9 5 11
47 44 46 48 45 45 48 38 36 36 38 18 15 10 10 1 10 2 13 10 11 12 8 3 5 6 7 2 7 3 1 6
45 46 41 51 49 49 43 51 51 40 31 25 16 23 18 9 18 13 19 18 14 14 12 12 6 4 10 7 8 1 3 7
49 51 49 47 53 58 59 45 45 58 50 43 43 32 26 25 26 21 22 24 20 15 5 18 19 15 12 19 15 11 8 6
51 52 50 53 55 62 61 63 55 46 69 55 46 51 41 28 31 30 29 23 23 15 15 6 12 14 10 10 14 7 12 12
56 53 55 57 55 56 61 54 58 50 48 66 54 41 38 36 29 33 31 25 19 16 13 17 19 18 14 15 14 15 13 16
62 58 57 56 61 57 59 57 50 52 42 48 55 49 45 42 40 37 35 32 25 23 21 23 22 20 25 20 25 21 22 18
59 62 59 60 62 65 60 60 54 57 55 48 54 55 55 52 51 45 40 35 34 26 28 28 27 27 25 30 30 31 34 18
73 73 71 72 70 72 71 67 60 65 62 55 51 52 54 49 46 54 48 43 41 38 34 36 35 38 34 38 35 33 27 22
85 83 88 82 84 84 81 77 71 65 67 59 53 48 47 44 41 39 44 54 56 51 46 43 32 39 37 37 40 37 26 27
91 96 98 97 98 93 87 85 80 70 68 69 65 61 56 55 50 48 45 47 52 49 47 45 37 42 43 47 43 37 29 23
87 103 108 107 104 102 98 94 88 77 71 72 68 63 60 57 57 47 49 55 45 54 43 47 44 51 48 48 48 36 26 26
86 100 103 110 112 108 105 101 96 87 75 73 71 70 64 64 60 51 51 39 25 52 32 37 40 50 48 46 45 40 33 34
40 50 96 112 110 115 108 104 101 95 85 73 71 71 64 58 51 54 43 30 32 27 29 30 36 47 58 46 39 44 32 28
34 19 14 76 112 110 114 110 104 97 82 61 54 68 64 60 58 49 24 18 26 14 30 33 34 39 35 41 32 26 22 22
15 19 20 38 73 108 113 105 97 97 93 84 34 74 65 53 46 45 43 27 16 41 62 52 46 55 39 44 22 16 10 9
27 30 29 19 35 90 84 93 102 94 86 70 53 53 51 42 66 54 52 38 37 49 40 46 58 32 27 7 12 11 9 10
96 90 79 34 26 34 54 70 78 81 77 61 57 51 50 59 57 50 32 33 40 27 28 17 13 20 22 22 18 14 14 9
55 69 91 115 62 26 49 49 55 53 36 38 38 43 35 48 48 23 26 36 28 15 3 28 32 22 15 12 11 13 10 6
Wind_Direction_500mb
176 171 175 178 184 183 187 167 172 183 164 181 223 194 175 149 153 117 39 245 13 348 353 346 43 85 79 79 77 62 71 66
179 177 182 174 187 192 188 165 173 204 206 215 238 172 148 147 92 124 155 231 272 352 12 43 62 109 63 103 81 119 129 37
184 183 185 177 176 183 188 171 174 205 212 221 238 193 202 201 219 75 178 203 250 233 247 225 92 118 82 37 71 122 285 96
187 184 188 182 182 189 189 186 184 198 188 194 223 235 210 202 227 228 217 215 226 248 236 256 171 132 165 179 193 166 257 227
196 190 193 199 198 195 203 209 211 208 199 194 195 195 199 217 211 225 236 240 236 241 247 206 225 204 240 241 257 265 196 257
196 199 198 201 204 202 209 215 221 219 211 211 208 207 213 223 210 220 236 260 246 235 224 171 225 209 215 251 226 255 261 253
200 201 204 202 210 210 210 221 226 224 213 216 218 214 204 216 222 226 237 244 256 236 240 222 202 206 228 263 252 263 254 243
203 200 205 206 210 217 222 220 231 225 223 219 216 212 206 215 213 228 236 244 247 237 247 226 221 223 230 234 253 252 256 262
203 205 206 210 217 217 221 219 228 222 223 222 216 212 213 216 215 216 230 239 246 243 238 219 230 242 246 237 248 250 265 243
200 206 205 209 216 220 220 224 230 226 223 225 227 223 223 230 224 225 222 232 239 239 238 239 236 240 243 230 244 259 259 229
201 205 207 210 214 218 222 223 227 231 224 226 229 228 228 226 221 223 225 224 235 243 235 237 235 236 228 233 247 255 253 244
208 209 209 211 216 219 224 224 225 229 225 225 225 220 216 225 229 236 238 231 236 249 238 235 239 241 239 242 251 253 243 236
216 215 216 216 215 217 221 225 221 223 229 225 227 226 227 230 231 239 234 234 232 244 256 236 244 247 245 251 249 245 242 246
217 222 223 219 216 218 218 220 223 224 222 227 227 231 232 234 232 234 237 237 252 256 253 237 251 254 253 247 246 251 251 255
256 225 222 222 212 215 219 220 221 222 224 221 226 233 235 237 233 240 243 227 232 244 251 261 264 270 265 234 247 242 245 252
272 292 233 221 217 210 217 220 221 215 216 227 239 242 225 228 232 240 226 225 219 244 275 270 257 258 261 281 245 237 231 248
67 47 62 207 220 216 214 215 211 214 215 207 248 240 228 230 226 237 262 239 268 297 295 278 275 279 257 251 224 222 233 199
34 32 32 57 206 220 204 209 216 214 212 219 222 219 229 232 249 234 228 259 267 303 294 275 285 229 199 192 161 144 144 175
47 39 18 53 60 138 179 189 191 194 200 203 203 217 220 226 226 216 228 309 304 303 296 296 154 122 137 132 129 144 164 181
43 12 14 16 31 107 137 155 172 197 203 208 209 187 215 219 212 219 296 309 309 325 50 86 97 101 112 127 154 185 227 272
Wind_Speed_850mb
50 49 52 44 35 31 26 18 15 19 14 11 7 13 11 15 18 11 5 2 4 7 12 6 8 12 14 11 18 11 14 10
52 49 51 47 44 40 38 25 19 35 23 15 9 10 8 5 6 7 6 8 5 2 5 11 11 8 6 10 9 9 5 11
47 44 46 48 45 45 48 38 36 36 38 18 15 10 10 1 10 2 13 10 11 12 8 3 5 6 7 2 7 3 1 6
45 46 41 51 49 49 43 51 51 40 31 25 16 23 18 9 18 13 19 18 14 14 12 12 6 4 10 7 8 1 3 7
49 51 49 47 53 58 59 45 45 58 50 43 43 32 26 25 26 21 22 24 20 15 5 18 19 15 12 19 15 11 8 6
51 52 50 53 55 62 61 63 55 46 69 55 46 51 41 28 31 30 29 23 23 15 15 6 12 14 10 10 14 7 12 12
56 53 55 57 55 56 61 54 58 50 48 66 54 41 38 36 29 33 31 25 19 16 13 17 19 18 14 15 14 15 13 16
62 58 57 56 61 57 59 57 50 52 42 48 55 49 45 42 40 37 35 32 25 23 21 23 22 20 25 20 25 21 22 18
59 62 59 60 62 65 60 60 54 57 55 48 54 55 55 52 51 45 40 35 34 26 28 28 27 27 25 30 30 31 34 18
73 73 71 72 70 72 71 67 60 65 62 55 51 52 54 49 46 54 48 43 41 38 34 36 35 38 34 38 35 33 27 22
85 83 88 82 84 84 81 77 71 65 67 59 53 48 47 44 41 39 44 54 56 51 46 43 32 39 37 37 40 37 26 27
91 96 98 97 98 93 87 85 80 70 68 69 65 61 56 55 50 48 45 47 52 49 47 45 37 42 43 47 43 37 29 23
87 103 108 107 104 102 98 94 88 77 71 72 68 63 60 57 57 47 49 55 45 54 43 47 44 51 48 48 48 36 26 26
86 100 103 110 112 108 105 101 96 87 75 73 71 70 64 64 60 51 51 39 25 52 32 37 40 50 48 46 45 40 33 34
40 50 96 112 110 115 108 104 101 95 85 73 71 71 64 58 51 54 43 30 32 27 29 30 36 47 58 46 39 44 32 28
34 19 14 76 112 110 114 110 104 97 82 61 54 68 64 60 58 49 24 18 26 14 30 33 34 39 35 41 32 26 22 22
15 19 20 38 73 108 113 105 97 97 93 84 34 74 65 53 46 45 43 27 16 41 62 52 46 55 39 44 22 16 10 9
27 30 29 19 35 90 84 93 102 94 86 70 53 53 51 42 66 54 52 38 37 49 40 46 58 32 27 7 12 11 9 10
96 90 79 34 26 34 54 70 78 81 77 61 57 51 50 59 57 50 32 33 40 27 28 17 13 20 22 22 18 14 14 9
55 69 91 115 62 26 49 49 55 53 36 38 38 43 35 48 48 23 26 36 28 15 3 28 32 22 15 12 11 13 10 6
Wind_Direction_850mb
176 171 175 178 184 183 187 167 172 183 164 181 223 194 175 149 153 117 39 245 13 348 353 346 43 85 79 79 77 62 71 66
179 177 182 174 187 192 188 165 173 204 206 215 238 172 148 147 92 124 155 231 272 352 12 43 62 109 63 103 81 119 129 37
184 183 185 177 176 183 188 171 174 205 212 221 238 193 202 201 219 75 178 203 250 233 247 225 92 118 82 37 71 122 285 96
187 184 188 182 182 189 189 186 184 198 188 194 223 235 210 202 227 228 217 215 226 248 236 256 171 132 165 179 193 166 257 227
196 190 193 199 198 195 203 209 211 208 199 194 195 195 199 217 211 225 236 240 236 241 247 206 225 204 240 241 257 265 196 257
196 199 198 201 204 202 209 215 221 219 211 211 208 207 213 223 210 220 236 260 246 235 224 171 225 209 215 251 226 255 261 253
200 201 204 202 210 210 210 221 226 224 213 216 218 214 204 216 222 226 237 244 256 236 240 222 202 206 228 263 252 263 254 243
203 200 205 206 210 217 222 220 231 225 223 219 216 212 206 215 213 228 236 244 247 237 247 226 221 223 230 234 253 252 256 262
203 205 206 210 217 217 221 219 228 222 223 222 216 212 213 216 215 216 230 239 246 243 238 219 230 242 246 237 248 250 265 243
200 206 205 209 216 220 220 224 230 226 223 225 227 223 223 230 224 225 222 232 239 239 238 239 236 240 243 230 244 259 259 229
201 205 207 210 214 218 222 223 227 231 224 226 229 228 228 226 221 223 225 224 235 243 235 237 235 236 228 233 247 255 253 244
208 209 209 211 216 219 224 224 225 229 225 225 225 220 216 225 229 236 238 231 236 249 238 235 239 241 239 242 251 253 243 236
216 215 216 216 215 217 221 225 221 223 229 225 227 226 227 230 231 239 234 234 232 244 256 236 244 247 245 251 249 245 242 246
217 222 223 219 216 218 218 220 223 224 222 227 227 231 232 234 232 234 237 237 252 256 253 237 251 254 253 247 246 251 251 255
256 225 222 222 212 215 219 220 221 222 224 221 226 233 235 237 233 240 243 227 232 244 251 261 264 270 265 234 247 242 245 252
272 292 233 221 217 210 217 220 221 215 216 227 239 242 225 228 232 240 226 225 219 244 275 270 257 258 261 281 245 237 231 248
67 47 62 207 220 216 214 215 211 214 215 207 248 240 228 230 226 237 262 239 268 297 295 278 275 279 257 251 224 222 233 199
34 32 32 57 206 220 204 209 216 214 212 219 222 219 229 232 249 234 228 259 267 303 294 275 285 229 199 192 161 144 144 175
47 39 18 53 60 138 179 189 191 194 200 203 203 217 220 226 226 216 228 309 304 303 296 296 154 122 137 132 129 144 164 181
43 12 14 16 31 107 137 155 172 197 203 208 209 187 215 219 212 219 296 309 309 325 50 86 97 101 112 127 154 185 227 272